Flag for Mauritania Weather past 2 weeks in Nouadhibou, Mauritania

Now
84 °F

Clear.


Feels Like: 87 °F
Forecast: N/A
Wind: 7 mph from West

Location: Nouadhibou Airport

Current Time: Aug 1, 2015 at 4:12:47 PM

Latest Report: Aug 1, 2015 at 3:00 PM


Visibility: 5 mi

Pressure: 29.86 "Hg

Humidity: 55%

Dew point: 66 °F

Location of NouadhibouLocation

Historic Weather in Nouadhibou — Graph

°F

Nouadhibou temperature yesterday

Maximum temperature yesterday: 88 °F (at 1:00 PM)
Minimum temperature yesterday: 70 °F (at 2:00 AM)
Average temperature yesterday: 74 °F

Past Weeks' High & Low Weather Summary

 TemperatureHumidityPressure
High104 °F (Aug 1, 1:00 PM)94% (Jul 21, 4:00 AM)30.01 "Hg (Jul 21, 4:00 AM)
Low66 °F (Jul 27, 5:00 AM)9% (Aug 1, 1:00 PM)29.74 "Hg (Jul 23, 5:00 PM)
Average73 °F78%29.88 "Hg
* Reported Jul 17 3:00 PM — Aug 1 3:00 PM, Nouadhibou, Weather by CustomWeather, © 2015

Note: Actual official high and low records may vary slightly from our data, if they occured in-between our weather recording intervals... More about our weather records

Advertising

Nouadhibou weather history for previous 24 hours

 ConditionsComfort  
Time TempWeatherWind HumidityBarometerVisibility
3:00 PM
Sat, Aug 1
84 °FClear.7 mph55%29.86 "Hg5 mi
2:00 PM84 °FClear.9 mph58%29.86 "Hg5 mi
1:00 PM104 °FExtremely hot.N/A9%N/AN/A
12:00 PM88 °FSunny.9 mph46%29.89 "Hg10 mi
11:00 AM82 °FSunny.13 mph58%29.89 "Hg10 mi
10:00 AM77 °FSunny.16 mph74%29.89 "Hg10 mi
9:00 AM75 °FClear.17 mph78%29.89 "Hg5 mi
8:00 AM73 °FClear.15 mph78%29.86 "Hg5 mi
7:00 AM70 °FClear.14 mph83%29.86 "Hg5 mi
6:00 AM72 °FClear.13 mph78%29.86 "Hg5 mi
5:00 AM70 °FClear.15 mph83%29.86 "Hg5 mi
4:00 AM72 °FClear.16 mph78%29.86 "Hg5 mi
3:00 AM72 °FClear.17 mph78%29.86 "Hg5 mi
2:00 AM72 °FClear.17 mph78%29.86 "Hg5 mi
1:00 AM73 °FClear.17 mph74%29.86 "Hg5 mi
12:00 AM73 °FClear.14 mph69%29.86 "Hg5 mi
11:00 PM
Fri, Jul 31
72 °FClear.14 mph78%29.86 "Hg5 mi
10:00 PM70 °FClear.10 mph83%29.86 "Hg5 mi
9:00 PM70 °FClear.12 mph83%29.86 "Hg5 mi
8:00 PM70 °FClear.15 mph83%29.83 "Hg5 mi
7:00 PM72 °FClear.17 mph78%29.83 "Hg5 mi
6:00 PM73 °FClear.17 mph74%29.83 "Hg5 mi
5:00 PM75 °FClear.17 mph69%29.83 "Hg5 mi
4:00 PM75 °FClear.20 mph69%29.83 "Hg5 mi
Weather by CustomWeather, © 2015

See weather overviewHow to use our weather pages